| time (UTC) | temp F | wind direction | speed MPH | gust MPH | rain 1hr in | rain 24hr in | rain mn in | humidity % | barometer mb |
| 20260904125808 | 67 | 309 | 12.0 | 23.0 | 0.00 | 0.44 | 0.44 | 64 | 1010.4 |
| 20260904122807 | 66 | 0 | 12.0 | 20.0 | 0.00 | 0.44 | 0.44 | 66 | 1010.2 |
| 20260904115815 | 65 | 282 | 12.0 | 22.0 | 0.00 | 0.44 | 0.44 | 70 | 1010.0 |
| 20260904102807 | 65 | 0 | 12.0 | 23.0 | 0.00 | 0.44 | 0.44 | 80 | 1009.0 |
| 20260904095807 | 64 | 300 | 11.0 | 24.0 | 0.00 | 0.44 | 0.44 | 86 | 1008.6 |
| 20260904082806 | 63 | 284 | 11.0 | 22.0 | 0.02 | 0.44 | 0.44 | 91 | 1007.9 |
| 20260904072803 | 62 | 279 | 12.0 | 32.0 | 0.08 | 0.43 | 0.43 | 90 | 1006.9 |
| 20260904062802 | 64 | 0 | 12.0 | 28.0 | 0.35 | 0.35 | 0.35 | 90 | 1005.8 |
| 20260904055804 | 68 | 245 | 8.0 | 20.0 | 0.02 | 0.02 | 0.02 | 88 | 1005.5 |
| 20260904052804 | 69 | 252 | 11.0 | 23.0 | 0.00 | 0.00 | 0.00 | 85 | 1005.5 |
| 20260904045811 | 70 | 239 | 13.0 | 27.0 | 0.00 | 0.00 | 0.00 | 80 | 1005.4 |
| 20260904042807 | 70 | 265 | 13.0 | 30.0 | 0.00 | 0.00 | 0.00 | 79 | 1005.3 |
| 20260904035803 | 70 | 251 | 13.0 | 26.0 | 0.00 | 0.00 | 0.00 | 79 | 1005.6 |
| 20260904032803 | 69 | 0 | 11.0 | 22.0 | 0.00 | 0.00 | 0.00 | 79 | 1005.8 |
| 20260904022803 | 69 | 208 | 12.0 | 29.0 | 0.00 | 0.00 | 0.00 | 78 | 1007.0 |
| 20260904015804 | 69 | 247 | 9.0 | 21.0 | 0.00 | 0.00 | 0.00 | 79 | 1007.5 |
| 20260904002802 | 68 | 240 | 7.0 | 16.0 | 0.00 | 0.00 | 0.00 | 78 | 1009.3 |
| 20260903235759 | 68 | 219 | 7.0 | 16.0 | 0.00 | 0.00 | 0.00 | 77 | 1009.6 |
| 20260903232759 | 68 | 216 | 8.0 | 19.0 | 0.00 | 0.00 | 0.00 | 75 | 1010.4 |
| 20260903222759 | 69 | 0 | 10.0 | 21.0 | 0.00 | 0.00 | 0.00 | 74 | 1011.3 |
| 20260903215756 | 70 | 244 | 8.0 | 18.0 | 0.00 | 0.00 | 0.00 | 75 | 1011.1 |
| 20260903212755 | 70 | 252 | 11.0 | 19.0 | 0.00 | 0.00 | 0.00 | 74 | 1011.3 |
| 20260903202756 | 70 | 237 | 5.0 | 13.0 | 0.00 | 0.00 | 0.00 | 68 | 1011.9 |
| 20260903192756 | 71 | 253 | 10.0 | 19.0 | 0.00 | 0.00 | 0.00 | 64 | 1012.2 |
| 20260903185755 | 72 | 252 | 11.0 | 20.0 | 0.00 | 0.00 | 0.00 | 63 | 1012.3 |
| 20260903182755 | 74 | 246 | 10.0 | 20.0 | 0.00 | 0.00 | 0.00 | 60 | 1012.0 |
| 20260903175804 | 75 | 0 | 11.0 | 22.0 | 0.00 | 0.00 | 0.00 | 58 | 1011.9 |
| 20260903172755 | 76 | 0 | 10.0 | 21.0 | 0.00 | 0.00 | 0.00 | 59 | 1012.1 |
| 20260903152756 | 79 | 252 | 12.0 | 25.0 | 0.00 | 0.00 | 0.00 | 52 | 1012.4 |
| 20260903145802 | 81 | 273 | 11.0 | 20.0 | 0.00 | 0.00 | 0.00 | 51 | 1012.4 |
| 20260903142755 | 79 | 269 | 11.0 | 24.0 | 0.00 | 0.00 | 0.00 | 51 | 1012.8 |